Location: Tel Aviv
(32.0670°N, 34.7670°E)
Time: 12:46:04
(UTC+03:00)

CUTE 1.7 + AOD 2 - Visible Passes

Search period start: 16 September 2024 00:00
Search period end: 26 September 2024 00:00
Orbit: 563 x 579 km, 97.8° (Epoch: 15 September)

Date Brightness Start Highest point End Pass type
(mag) Time Alt. Az. Time Alt. Az. Time Alt. Az.
16 Sep ? 04:12:11 10° NNE 04:14:22 31° NNE 04:14:22 31° NNE visible
17 Sep ? 04:14:28 10° N 04:16:34 30° N 04:16:34 30° N visible
18 Sep ? 04:16:42 10° N 04:18:45 29° N 04:18:45 29° N visible
19 Sep ? 04:18:56 10° N 04:20:54 28° N 04:20:54 28° N visible
20 Sep ? 04:21:07 10° N 04:23:00 26° N 04:23:00 26° N visible
21 Sep ? 04:23:18 10° N 04:25:06 25° N 04:25:06 25° N visible
22 Sep ? 04:25:28 10° N 04:27:09 24° N 04:27:09 24° N visible
23 Sep ? 04:27:35 10° N 04:29:12 23° N 04:29:12 23° N visible
24 Sep ? 04:29:42 10° N 04:31:12 21° N 04:31:12 21° N visible
25 Sep ? 04:31:47 10° N 04:33:11 20° N 04:33:11 20° N visible
